Terminal Aerodrome Forecast
Issued by NWS La Crosse, WI

Home | Current Version | Previous Version | Text Only | Print | Product List | Glossary On
Versions: 1 2 3 4 5 6 7 8 9 10 11 12 13 14 15 16 17 18 19 20 21 22 23 24 25 26 27 28 29 30 31 32 33 34 35 36 37 38 39 40 41 42 43 44 45 46 47 48 49 50
000
FTUS43 KARX 210521
TAFRST
TAF
KRST 210521Z 2106/2206 16008KT 3SM BR OVC007
     FM210730 17010KT 1SM BR OVC004
     FM210930 16012KT 1/2SM -FZDZ FZFG VV002
      TEMPO 2111/2115 1/4SM FZFG
     FM211600 17015KT 1SM -DZ BR OVC003
     FM220000 17017KT 3/4SM BR OVC003=

USA.gov is the U.S. government's official web portal to all federal, state and local government web resources and services.